Location: Chavannes
(47.1090°N, 0.2226°W)
Time: 04:41:03
(UTC+00:00)

Landsat 5 - Pass Details

Date: 16 October 2021
Orbit: 528 x 652 km, 98.2° (Epoch: 03 December)

Event Time Altitude Azimuth Distance (km) Brightness Sun altitude
Rises 17:46:25 0° 19° (NNE) 2,870 6.7 -6.7°
Reaches altitude 10° 17:48:40 10° 27° (NNE) 1,981 5.8 -7.1°
Maximum altitude 17:52:48 43° 99° (E) 879 3.9 -7.8°
Drops below altitude 10° 17:57:01 10° 172° (S) 2,025 6.2 -8.5°
Sets 17:59:20 0° 179° (S) 2,942 7.1 -8.9°
